Time,TemperatureF,DewpointF,PressureIn,WindDirection,WindDirectionDegrees,WindSpeedMPH,WindSpeedGustMPH,Humidity,HourlyPrecipIn,Conditions,Clouds,dailyrainin,SoftwareType,DateUTC
2013-03-13 00:03:00,17.8,14.0,30.19,North,5,8.0,20.0,83,0.00,,,0.00,weatherlink.com 1.10,2013-03-13 05:03:00,
2013-03-13 00:18:00,17.5,13.0,30.20,NW,321,4.0,14.0,83,0.00,,,0.00,weatherlink.com 1.10,2013-03-13 05:18:00,
2013-03-13 00:33:00,17.1,13.0,30.20,NW,315,8.0,13.0,83,0.00,,,0.00,weatherlink.com 1.10,2013-03-13 05:33:00,
2013-03-13 00:48:00,16.7,12.0,30.21,NW,318,6.0,14.0,83,0.00,,,0.00,weatherlink.com 1.10,2013-03-13 05:48:00,
2013-03-13 01:03:00,16.5,13.0,30.21,WNW,292,5.0,13.0,84,0.00,,,0.00,weatherlink.com 1.10,2013-03-13 06:03:00,
2013-03-13 01:18:00,16.4,12.0,30.22,NNW,335,6.0,15.0,84,0.00,,,0.00,weatherlink.com 1.10,2013-03-13 06:18:00,
2013-03-13 01:33:00,16.2,12.0,30.22,NW,309,10.0,19.0,84,0.00,,,0.00,weatherlink.com 1.10,2013-03-13 06:33:00,
2013-03-13 01:49:00,15.9,12.0,30.22,NNW,342,4.0,14.0,84,0.00,,,0.00,weatherlink.com 1.10,2013-03-13 06:49:00,
2013-03-13 02:19:00,15.4,11.0,30.23,NW,325,4.0,12.0,84,0.00,,,0.00,weatherlink.com 1.10,2013-03-13 07:19:00,
2013-03-13 02:34:00,15.2,11.0,30.23,NNW,339,3.0,9.0,84,0.00,,,0.00,weatherlink.com 1.10,2013-03-13 07:34:00,
2013-03-13 02:49:00,14.9,11.0,30.24,NNW,336,5.0,14.0,84,0.00,,,0.00,weatherlink.com 1.10,2013-03-13 07:49:00,
2013-03-13 03:04:00,14.5,11.0,30.25,NW,321,4.0,8.0,84,0.00,,,0.00,weatherlink.com 1.10,2013-03-13 08:04:00,
2013-03-13 03:19:00,14.3,10.0,30.25,NNW,329,5.0,10.0,84,0.00,,,0.00,weatherlink.com 1.10,2013-03-13 08:19:00,
2013-03-13 03:34:00,14.3,11.0,30.25,NNW,341,5.0,11.0,85,0.00,,,0.00,weatherlink.com 1.10,2013-03-13 08:34:00,
2013-03-13 03:49:00,14.1,10.0,30.26,NW,310,3.0,11.0,85,0.00,,,0.00,weatherlink.com 1.10,2013-03-13 08:49:00,
2013-03-13 04:04:00,13.9,10.0,30.26,NW,322,6.0,9.0,84,0.00,,,0.00,weatherlink.com 1.10,2013-03-13 09:04:00,
2013-03-13 04:19:00,13.6,10.0,30.26,NNW,334,1.0,11.0,85,0.00,,,0.00,weatherlink.com 1.10,2013-03-13 09:19:00,
2013-03-13 04:34:00,13.6,10.0,30.27,NNW,336,5.0,13.0,85,0.00,,,0.00,weatherlink.com 1.10,2013-03-13 09:34:00,
2013-03-13 04:49:00,13.3,9.0,30.27,NW,326,5.0,10.0,84,0.00,,,0.00,weatherlink.com 1.10,2013-03-13 09:49:00,
2013-03-13 05:04:00,13.0,9.0,30.29,West,280,2.0,11.0,85,0.00,,,0.00,weatherlink.com 1.10,2013-03-13 10:04:00,
2013-03-13 05:19:00,13.0,9.0,30.29,NW,317,5.0,9.0,85,0.00,,,0.00,weatherlink.com 1.10,2013-03-13 10:19:00,
2013-03-13 05:34:00,13.0,9.0,30.30,NW,318,2.0,9.0,85,0.00,,,0.00,weatherlink.com 1.10,2013-03-13 10:34:00,
2013-03-13 05:49:00,12.7,9.0,30.30,WNW,294,4.0,7.0,85,0.00,,,0.00,weatherlink.com 1.10,2013-03-13 10:49:00,
2013-03-13 06:04:00,12.6,9.0,30.31,WNW,286,5.0,10.0,85,0.00,,,0.00,weatherlink.com 1.10,2013-03-13 11:04:00,
2013-03-13 06:19:00,12.3,9.0,30.31,NNW,339,4.0,6.0,85,0.00,,,0.00,weatherlink.com 1.10,2013-03-13 11:19:00,
2013-03-13 06:34:00,12.1,9.0,30.32,NW,312,1.0,7.0,85,0.00,,,0.00,weatherlink.com 1.10,2013-03-13 11:34:00,
2013-03-13 06:49:00,11.8,8.0,30.32,NW,313,1.0,7.0,85,0.00,,,0.00,weatherlink.com 1.10,2013-03-13 11:49:00,
2013-03-13 07:04:00,11.8,8.0,30.32,NW,318,5.0,7.0,86,0.00,,,0.00,weatherlink.com 1.10,2013-03-13 12:04:00,
2013-03-13 07:19:00,12.2,9.0,30.33,NW,315,4.0,11.0,86,0.00,,,0.00,weatherlink.com 1.10,2013-03-13 12:19:00,
2013-03-13 07:34:00,12.3,9.0,30.34,NNW,327,3.0,10.0,86,0.00,,,0.00,weatherlink.com 1.10,2013-03-13 12:34:00,
2013-03-13 07:50:00,12.2,9.0,30.34,NW,317,4.0,10.0,86,0.00,,,0.00,weatherlink.com 1.10,2013-03-13 12:50:00,
2013-03-13 08:05:00,12.5,9.0,30.34,NW,315,2.0,13.0,86,0.00,,,0.00,weatherlink.com 1.10,2013-03-13 13:05:00,
2013-03-13 08:20:00,12.7,9.0,30.34,WNW,296,5.0,12.0,86,0.00,,,0.00,weatherlink.com 1.10,2013-03-13 13:20:00,
2013-03-13 08:35:00,13.1,9.0,30.35,NNW,332,8.0,14.0,85,0.00,,,0.00,weatherlink.com 1.10,2013-03-13 13:35:00,
2013-03-13 08:50:00,13.5,10.0,30.35,NW,311,10.0,12.0,85,0.00,,,0.00,weatherlink.com 1.10,2013-03-13 13:50:00,
2013-03-13 09:05:00,14.0,10.0,30.36,NNW,346,6.0,11.0,85,0.00,,,0.00,weatherlink.com 1.10,2013-03-13 14:05:00,
2013-03-13 09:20:00,14.4,10.0,30.37,NW,309,4.0,10.0,84,0.00,,,0.00,weatherlink.com 1.10,2013-03-13 14:20:00,
2013-03-13 09:35:00,14.7,11.0,30.38,NW,323,6.0,13.0,84,0.00,,,0.00,weatherlink.com 1.10,2013-03-13 14:35:00,
2013-03-13 09:50:00,15.3,11.0,30.38,NNW,345,9.0,12.0,84,0.00,,,0.00,weatherlink.com 1.10,2013-03-13 14:50:00,
2013-03-13 10:05:00,15.9,12.0,30.39,NNW,336,6.0,12.0,83,0.00,,,0.00,weatherlink.com 1.10,2013-03-13 15:05:00,
2013-03-13 10:20:00,17.0,13.0,30.39,NNW,342,6.0,10.0,83,0.00,,,0.00,weatherlink.com 1.10,2013-03-13 15:20:00,
2013-03-13 10:35:00,17.6,13.0,30.40,WNW,293,3.0,10.0,83,0.00,,,0.00,weatherlink.com 1.10,2013-03-13 15:35:00,
2013-03-13 10:50:00,18.0,13.0,30.40,NNW,343,6.0,14.0,82,0.00,,,0.00,weatherlink.com 1.10,2013-03-13 15:50:00,
2013-03-13 11:05:00,19.6,15.0,30.41,NNW,335,7.0,11.0,82,0.00,,,0.00,weatherlink.com 1.10,2013-03-13 16:05:00,
2013-03-13 11:20:00,20.4,15.0,30.41,NW,315,3.0,10.0,80,0.00,,,0.00,weatherlink.com 1.10,2013-03-13 16:20:00,
2013-03-13 11:35:00,19.9,15.0,30.41,NW,310,5.0,10.0,80,0.00,,,0.00,weatherlink.com 1.10,2013-03-13 16:35:00,
2013-03-13 11:50:00,20.1,15.0,30.41,NW,313,3.0,10.0,81,0.00,,,0.00,weatherlink.com 1.10,2013-03-13 16:50:00,
2013-03-13 12:05:00,20.5,15.0,30.41,NNW,331,7.0,11.0,80,0.00,,,0.00,weatherlink.com 1.10,2013-03-13 17:05:00,
2013-03-13 12:20:00,21.1,16.0,30.41,NW,314,1.0,9.0,80,0.00,,,0.00,weatherlink.com 1.10,2013-03-13 17:20:00,
2013-03-13 12:35:00,24.1,18.0,30.41,West,262,4.0,8.0,78,0.00,,,0.00,weatherlink.com 1.10,2013-03-13 17:35:00,
2013-03-13 12:50:00,24.7,18.0,30.41,WNW,286,2.0,6.0,76,0.01,,,0.01,weatherlink.com 1.10,2013-03-13 17:50:00,
2013-03-13 13:05:00,24.9,18.0,30.41,West,277,5.0,8.0,76,0.01,,,0.01,weatherlink.com 1.10,2013-03-13 18:05:00,
2013-03-13 13:20:00,25.3,19.0,30.41,WSW,258,5.0,9.0,77,0.01,,,0.01,weatherlink.com 1.10,2013-03-13 18:20:00,
2013-03-13 13:35:00,25.1,18.0,30.41,WNW,291,3.0,8.0,75,0.01,,,0.01,weatherlink.com 1.10,2013-03-13 18:35:00,
2013-03-13 13:50:00,25.6,19.0,30.40,WNW,294,3.0,7.0,77,0.00,,,0.01,weatherlink.com 1.10,2013-03-13 18:50:00,
2013-03-13 14:05:00,26.2,20.0,30.40,West,273,1.0,8.0,76,0.01,,,0.02,weatherlink.com 1.10,2013-03-13 19:05:00,
2013-03-13 14:20:00,26.9,20.0,30.39,WNW,283,5.0,6.0,74,0.02,,,0.03,weatherlink.com 1.10,2013-03-13 19:20:00,
2013-03-13 14:35:00,26.7,19.0,30.39,NW,314,1.0,5.0,74,0.02,,,0.03,weatherlink.com 1.10,2013-03-13 19:35:00,
2013-03-13 14:50:00,26.4,19.0,30.39,NW,321,3.0,8.0,72,0.03,,,0.04,weatherlink.com 1.10,2013-03-13 19:50:00,
2013-03-13 15:05:00,27.2,19.0,30.38,WNW,294,0.0,6.0,71,0.02,,,0.04,weatherlink.com 1.10,2013-03-13 20:05:00,
2013-03-13 15:20:00,26.8,19.0,30.38,SW,235,5.0,8.0,73,0.02,,,0.05,weatherlink.com 1.10,2013-03-13 20:20:00,
2013-03-13 15:35:00,26.4,20.0,30.38,West,279,2.0,7.0,75,0.02,,,0.05,weatherlink.com 1.10,2013-03-13 20:35:00,
2013-03-13 15:50:00,27.2,20.0,30.38,West,281,5.0,7.0,74,0.02,,,0.06,weatherlink.com 1.10,2013-03-13 20:50:00,
2013-03-13 16:05:00,27.8,20.0,30.38,West,274,1.0,9.0,73,0.02,,,0.06,weatherlink.com 1.10,2013-03-13 21:05:00,
2013-03-13 16:20:00,27.2,20.0,30.38,WNW,289,1.0,9.0,75,0.02,,,0.07,weatherlink.com 1.10,2013-03-13 21:20:00,
2013-03-13 16:35:00,26.9,20.0,30.38,West,279,6.0,11.0,76,0.02,,,0.07,weatherlink.com 1.10,2013-03-13 21:35:00,
2013-03-13 16:50:00,26.3,20.0,30.38,WNW,283,0.0,9.0,76,0.01,,,0.07,weatherlink.com 1.10,2013-03-13 21:50:00,
2013-03-13 17:05:00,26.0,19.0,30.38,WNW,283,5.0,12.0,76,0.01,,,0.07,weatherlink.com 1.10,2013-03-13 22:05:00,
2013-03-13 17:20:00,25.6,19.0,30.37,West,260,4.0,7.0,77,0.00,,,0.07,weatherlink.com 1.10,2013-03-13 22:20:00,
2013-03-13 17:36:00,25.3,19.0,30.37,WNW,286,4.0,9.0,77,0.00,,,0.07,weatherlink.com 1.10,2013-03-13 22:36:00,
2013-03-13 17:50:00,25.3,19.0,30.36,WSW,250,0.0,8.0,77,0.00,,,0.07,weatherlink.com 1.10,2013-03-13 22:50:00,
2013-03-13 18:05:00,24.4,18.0,30.36,WSW,250,4.0,6.0,78,0.00,,,0.07,weatherlink.com 1.10,2013-03-13 23:05:00,
2013-03-13 18:21:00,23.7,18.0,30.35,SW,230,2.0,6.0,78,0.00,,,0.07,weatherlink.com 1.10,2013-03-13 23:21:00,
2013-03-13 18:36:00,23.1,18.0,30.34,SW,234,1.0,3.0,79,0.00,,,0.07,weatherlink.com 1.10,2013-03-13 23:36:00,
2013-03-13 18:51:00,22.5,17.0,30.35,WSW,241,2.0,6.0,79,0.00,,,0.07,weatherlink.com 1.10,2013-03-13 23:51:00,
2013-03-13 19:06:00,21.9,17.0,30.34,WSW,242,0.0,3.0,80,0.00,,,0.07,weatherlink.com 1.10,2013-03-14 00:06:00,
2013-03-13 19:21:00,21.3,16.0,30.35,WSW,242,0.0,5.0,81,0.00,,,0.07,weatherlink.com 1.10,2013-03-14 00:21:00,
2013-03-13 19:36:00,20.7,16.0,30.35,WSW,242,2.0,3.0,81,0.00,,,0.07,weatherlink.com 1.10,2013-03-14 00:36:00,
2013-03-13 19:51:00,20.3,15.0,30.34,WSW,241,1.0,3.0,81,0.00,,,0.07,weatherlink.com 1.10,2013-03-14 00:51:00,
2013-03-13 20:06:00,19.9,15.0,30.34,WSW,241,2.0,3.0,82,0.00,,,0.07,weatherlink.com 1.10,2013-03-14 01:06:00,
2013-03-13 20:21:00,19.6,15.0,30.34,WSW,241,0.0,3.0,83,0.00,,,0.07,weatherlink.com 1.10,2013-03-14 01:21:00,
2013-03-13 20:36:00,19.4,15.0,30.33,WSW,242,0.0,1.0,83,0.00,,,0.07,weatherlink.com 1.10,2013-03-14 01:36:00,
2013-03-13 21:21:00,17.6,13.0,30.33,WSW,242,0.0,0.0,83,0.00,,,0.07,weatherlink.com 1.10,2013-03-14 02:21:00,
2013-03-13 21:36:00,16.8,13.0,30.33,WSW,242,0.0,0.0,84,0.00,,,0.07,weatherlink.com 1.10,2013-03-14 02:36:00,
2013-03-13 22:21:00,16.3,13.0,30.32,WSW,242,0.0,2.0,85,0.00,,,0.07,weatherlink.com 1.10,2013-03-14 03:21:00,
2013-03-13 22:36:00,16.4,13.0,30.32,WSW,241,1.0,1.0,85,0.00,,,0.07,weatherlink.com 1.10,2013-03-14 03:36:00,
2013-03-13 22:51:00,16.6,13.0,30.31,WSW,242,0.0,2.0,85,0.00,,,0.07,weatherlink.com 1.10,2013-03-14 03:51:00,
2013-03-13 23:36:00,16.4,13.0,30.31,WSW,242,0.0,2.0,85,0.00,,,0.07,weatherlink.com 1.10,2013-03-14 04:36:00,
2013-03-13 23:51:00,16.2,13.0,30.30,WSW,242,0.0,3.0,85,0.00,,,0.07,weatherlink.com 1.10,2013-03-14 04:51:00,